Location: Rumah Geringgi
(3.1667°N, 113.1667°E)
Time: 11:33:13
(UTC+00:00)

Cosmos 1339 Rocket - Pass Details

Date: 03 August 2024
Orbit: 941 x 1006 km, 82.9° (Epoch: 12 September)

Event Time Altitude Azimuth Distance (km) Brightness Sun altitude
Rises 12:02:52 0° 1° (N) 3,589 7.7 -20.2°
Reaches altitude 10° 12:05:21 10° 3° (N) 2,646 7.0 -20.8°
Maximum altitude 12:11:22 72° 87° (E) 989 4.3 -22.2°
Enters shadow 12:14:48 27° 166° (SSE) 1,727 5.5 -23.0°
